Change the Weather History Date:

Saturday, September 29, 2012

  Actual Average (KISP) Record (KISP)
Temperature  
Mean Temperature 58 °F 60 °F  
Max Temperature 62 °F 69 °F 80 °F (2010)
Min Temperature 53 °F 52 °F 41 °F (2000)
Degree Days  
Heating Degree Days 7 6  
Month to date heating degree days 66  
Since 1 July heating degree days 71  
Cooling Degree Days 0 1  
Month to date cooling degree days 90  
Year to date cooling degree days 776  
Growing Degree Days 8 (Base 50)    
Moisture  
Dew Point 56 °F    
Average Humidity 89    
Maximum Humidity 94    
Minimum Humidity 77    
Precipitation  
Precipitation 0.10 in 0.13 in 0.98 in (2004)
Month to date precipitation 3.45  
Year to date precipitation 34.59  
Snow  
Snow 0.00 in 0.00 in - ()
Month to date snowfall 0.0  
Since 1 July snowfall 0.0  
Snow Depth -    
Sea Level Pressure  
Sea Level Pressure 29.91 in    
Wind  
Wind Speed 5 mph (NNW)    
Max Wind Speed 8 mph    
Max Gust Speed -    
Visibility 10 miles    
Events Rain    
T = Trace of Precipitation, MM = Missing Value Source: NWS Daily Summary

Daily Weather History Graph

Daily Weather History Graph

Search for Another Location

Airport or City:

Trip Planner

Search our weather history database for the weather conditions in past years. The results will help you decide how hot, cold, wet, or windy it might be!

Date:

Astronomy

Sep. 29, 2012 Rise Set
Actual Time 6:46 AM EDT 6:36 PM EDT
Civil Twilight 6:19 AM EDT 7:03 PM EDT
Nautical Twilight 5:47 AM EDT 7:35 PM EDT
Astronomical Twilight 5:15 AM EDT 8:07 PM EDT
Moon 6:06 PM EDT (9/29) 6:14 AM EDT (9/29)
Length of Visible Light 12h 44m
Length of Day
11h 49m
Full, 100% of the Moon is Illuminated
Sep 29
Full
Sep 29
Full
Oct 8
Last Quarter
Oct 15
New
Oct 21
First Quarter

Hourly Weather History & Observations

Time (EDT) Temp. Dew Point Humidity Pressure Visibility Wind Dir Wind Speed Gust Speed Precip Events Conditions
12:56 AM 60.1 °F 57.9 °F 93% 29.93 in 10.0 mi North 6.9 mph - N/A   Overcast
1:56 AM 60.1 °F 57.9 °F 93% 29.92 in 10.0 mi North 8.1 mph - 0.01 in Rain Light Rain
2:45 AM 60.8 °F 57.2 °F 88% 29.91 in 10.0 mi North 5.8 mph - 0.04 in Rain Light Rain
2:50 AM 59.0 °F 57.2 °F 94% 29.91 in 9.0 mi North 5.8 mph - 0.04 in Rain Light Rain
2:56 AM 59.0 °F 57.0 °F 93% 29.91 in 9.0 mi North 5.8 mph - 0.05 in Rain Light Rain
3:14 AM 59.0 °F 57.2 °F 94% 29.91 in 9.0 mi North 5.8 mph - 0.02 in Rain Light Rain
3:56 AM 59.0 °F 57.0 °F 93% 29.91 in 10.0 mi North 5.8 mph - 0.03 in Rain Light Rain
4:56 AM 59.0 °F 57.0 °F 93% 29.90 in 10.0 mi North 5.8 mph - 0.00 in   Overcast
5:56 AM 59.0 °F 57.0 °F 93% 29.92 in 10.0 mi NNW 5.8 mph - N/A   Overcast
6:56 AM 59.0 °F 57.0 °F 93% 29.92 in 10.0 mi NNW 5.8 mph - N/A   Overcast
7:56 AM 59.0 °F 57.0 °F 93% 29.91 in 10.0 mi North 3.5 mph - N/A   Overcast
8:56 AM 59.0 °F 57.0 °F 93% 29.91 in 10.0 mi North 6.9 mph - N/A   Overcast
9:56 AM 60.1 °F 57.0 °F 90% 29.93 in 4.0 mi North 4.6 mph - N/A   Overcast
10:56 AM 61.0 °F 57.0 °F 87% 29.93 in 10.0 mi North 4.6 mph - 0.01 in   Overcast
11:14 AM 60.8 °F 57.2 °F 88% 29.93 in 10.0 mi Variable 4.6 mph - N/A   Overcast
11:56 AM 62.1 °F 57.0 °F 84% 29.91 in 10.0 mi North 6.9 mph - N/A   Overcast
12:48 PM 60.8 °F 57.2 °F 88% 29.91 in 10.0 mi NNW 5.8 mph - N/A   Overcast
1:56 PM 60.1 °F 57.0 °F 90% 29.90 in 10.0 mi NNW 5.8 mph - N/A   Overcast
2:53 PM 60.8 °F 55.4 °F 82% 29.90 in 10.0 mi NW 6.9 mph - N/A   Overcast
2:56 PM 61.0 °F 55.9 °F 83% 29.90 in 10.0 mi NNW 5.8 mph - N/A   Overcast
3:56 PM 61.0 °F 55.9 °F 83% 29.89 in 10.0 mi NNW 3.5 mph - N/A   Overcast
4:18 PM 60.8 °F 55.4 °F 82% 29.88 in 10.0 mi NNW 3.5 mph - N/A   Overcast
4:56 PM 62.1 °F 55.9 °F 80% 29.88 in 10.0 mi North 3.5 mph - N/A   Mostly Cloudy
5:25 PM 62.6 °F 55.4 °F 77% 29.89 in 10.0 mi Calm Calm - N/A   Overcast
5:56 PM 61.0 °F 57.0 °F 87% 29.88 in 10.0 mi Calm Calm - N/A   Mostly Cloudy
6:24 PM 60.8 °F 55.4 °F 82% 29.89 in 10.0 mi Calm Calm - N/A   Partly Cloudy
6:52 PM 59.0 °F 55.4 °F 88% 29.90 in 10.0 mi Calm Calm - N/A   Mostly Cloudy
6:56 PM 59.0 °F 57.0 °F 93% 29.90 in 10.0 mi Calm Calm - N/A   Mostly Cloudy
7:15 PM 59.0 °F 57.2 °F 94% 29.90 in 10.0 mi Calm Calm - N/A   Overcast
7:56 PM 59.0 °F 57.0 °F 93% 29.91 in 10.0 mi Calm Calm - N/A   Overcast
8:56 PM 57.0 °F 55.0 °F 93% 29.90 in 9.0 mi Calm Calm - N/A   Scattered Clouds
10:56 PM 54.0 °F 52.0 °F 93% 29.91 in 8.0 mi Calm Calm - N/A   Clear
11:56 PM 53.1 °F 51.1 °F 93% 29.87 in 9.0 mi Calm Calm - N/A   Clear